WFOV (USA 332)

Last updated on Thu Oct 30 2025 00:02:52 GMT+0000 (Coordinated Universal Time)

1 52940U 22073A 25302.53817471 -.00000350 00000+0 00000+0 0 9999 2 52940 3.1135 81.4953 0001941 86.4238 183.2457 1.00271049 12053
UTC large
Height (km)
Speed (km/s)
/
Latitude / Longitude
Inclination (degrees)
Orbital Period (minutes)
Azimuth
Elevation
Range (km)
Doppler Factor

Next 0 passes for location: London (51.5072 / 0.1276)

Sorry there are no passes over London.